Starlink 32270

operational
NORAD ID: 60364 Int'l Des: 2024-138 Owner: SPXS Country: US Constellation: starlink
LEOCIRCULAR

Starlink 32270について

説明を読み込み中...

リアルタイム位置

3D地球を読み込み中...

次回通過

高度履歴

Altitude vs Time

uPlot chart will show altitude changes over time

軌道要素

1 60364U 24138K 25305.98371660 .00000615 00000-0 32897-4 0 9997
2 60364 53.1590 182.9008 0001344 90.2505 269.8650 15.30184251 70974
Epoch: Nov 1, 2025 • Age: 47 hours

現在のステータス

高度 475.3 km
速度 7.63 km/s
衛星直下点 10.70°N, 158.03°E
打ち上げ日 Aug 4, 2024
運用期間 1.2 years
タイプ internet

技術仕様

分類 Payload
質量 730.00 kg
乾燥質量 700.00 kg
総質量 730.00 kg
長さ 0.30 m
直径 4.10 m
スパン 29.00 m
形状 Box + pan
製造者 SPXS
バスタイプ Starlink V2M
フェーズステータス In Orbit
所有者/国 SPXS/US

大規模コンステレーション

Loading constellations...